Date,Installs,Update checks
2020-01-25,0,0
2020-01-26,3,0
2020-01-27,1,0
2020-01-28,1,0
2020-01-29,1,0
2020-01-30,0,0
2020-01-31,1,0
2020-02-01,1,0
2020-02-02,0,0
2020-02-03,0,0
2020-02-04,0,0
2020-02-05,0,1
2020-02-06,0,0
2020-02-07,0,0
2020-02-08,0,0
2020-02-09,0,0
2020-02-10,0,0
2020-02-11,0,0
2020-02-12,0,0
2020-02-13,0,0
2020-02-14,0,0
2020-02-15,1,1
2020-02-16,1,0
2020-02-17,4,0
2020-02-18,1,0
2020-02-19,5,0
2020-02-20,1,0
2020-02-21,2,0
2020-02-22,2,0
2020-02-23,2,1
2020-02-24,4,1
2020-02-25,2,0
2020-02-26,3,3
2020-02-27,4,5
2020-02-28,3,2
2020-02-29,1,3
2020-03-01,2,4
2020-03-02,3,3
2020-03-03,0,3
2020-03-04,0,3
2020-03-05,1,4
2020-03-06,4,2
2020-03-07,1,1
2020-03-08,0,8
2020-03-09,2,3
2020-03-10,1,5
2020-03-11,0,1
2020-03-12,2,3
2020-03-13,5,5
2020-03-14,1,4
2020-03-15,0,4
2020-03-16,0,5
2020-03-17,2,5
2020-03-18,1,7
2020-03-19,0,5
2020-03-20,2,4
2020-03-21,3,5
2020-03-22,4,7
2020-03-23,2,7
2020-03-24,2,10
2020-03-25,1,7
2020-03-26,1,13
2020-03-27,2,7
2020-03-28,2,10
2020-03-29,1,10
2020-03-30,0,7
2020-03-31,1,11
2020-04-01,3,14
2020-04-02,2,10
2020-04-03,0,12
2020-04-04,0,15
2020-04-05,5,8
2020-04-06,1,9
2020-04-07,3,13
2020-04-08,5,14
2020-04-09,4,18
2020-04-10,2,15
2020-04-11,0,17
2020-04-12,7,15
2020-04-13,1,15
2020-04-14,3,18
2020-04-15,4,18
2020-04-16,0,13
2020-04-17,2,15
2020-04-18,1,21
2020-04-19,0,13
2020-04-20,2,14
2020-04-21,2,22
2020-04-22,4,22
2020-04-23,2,17
2020-04-24,3,26
2020-04-25,2,29
2020-04-26,6,15
2020-04-27,4,23
2020-04-28,2,21
2020-04-29,2,21
2020-04-30,1,23
2020-05-01,2,18
2020-05-02,5,24
2020-05-03,1,20
2020-05-04,2,17
2020-05-05,2,23
2020-05-06,2,26
2020-05-07,2,33
2020-05-08,0,22
2020-05-09,0,24
2020-05-10,1,27
2020-05-11,0,26
2020-05-12,1,22
2020-05-13,2,23
2020-05-14,2,26
2020-05-15,3,29
2020-05-16,6,27
2020-05-17,2,31
2020-05-18,0,25
2020-05-19,3,31
2020-05-20,0,34
2020-05-21,1,33
2020-05-22,1,29
2020-05-23,2,29
2020-05-24,4,30
2020-05-25,3,26
2020-05-26,2,33
2020-05-27,1,35
2020-05-28,1,30
2020-05-29,5,30
2020-05-30,2,31
2020-05-31,1,34
2020-06-01,3,36
2020-06-02,1,33
2020-06-03,0,33
2020-06-04,0,34
2020-06-05,4,41
2020-06-06,3,30
2020-06-07,1,36
2020-06-08,1,28
2020-06-09,1,31
2020-06-10,3,37
2020-06-11,1,32
2020-06-12,0,35
2020-06-13,3,29
2020-06-14,4,34
2020-06-15,2,36
2020-06-16,3,27
2020-06-17,5,42
2020-06-18,4,39
2020-06-19,1,30
2020-06-20,1,40
2020-06-21,0,41
2020-06-22,0,33
2020-06-23,4,38
2020-06-24,7,41
2020-06-25,3,36
2020-06-26,0,46
2020-06-27,0,39
2020-06-28,3,39
2020-06-29,4,35
2020-06-30,3,37
2020-07-01,4,34
2020-07-02,3,37
2020-07-03,1,37
2020-07-04,2,41
2020-07-05,0,41
2020-07-06,1,42
2020-07-07,5,42
2020-07-08,6,41
2020-07-09,3,40
2020-07-10,1,46
2020-07-11,4,40
2020-07-12,0,44
2020-07-13,4,41
2020-07-14,2,48
2020-07-15,2,47
2020-07-16,3,47
2020-07-17,2,41
2020-07-18,4,46
2020-07-19,0,41
2020-07-20,1,49
2020-07-21,0,45
2020-07-22,1,40
2020-07-23,1,42
2020-07-24,2,45
2020-07-25,2,40
2020-07-26,10,48
2020-07-27,3,53
2020-07-28,2,44
2020-07-29,1,50
2020-07-30,1,46
2020-07-31,0,51
2020-08-01,0,55
2020-08-02,1,52
2020-08-03,2,52
2020-08-04,1,48
2020-08-05,0,46
2020-08-06,2,38
2020-08-07,2,49
2020-08-08,4,53
2020-08-09,2,48
2020-08-10,0,52
2020-08-11,1,46
2020-08-12,1,52
2020-08-13,0,55
2020-08-14,1,47
2020-08-15,0,51
2020-08-16,0,54
2020-08-17,0,43
2020-08-18,0,45
2020-08-19,1,43
2020-08-20,2,50
2020-08-21,2,55
2020-08-22,0,38
2020-08-23,0,45
2020-08-24,2,53
2020-08-25,2,43
2020-08-26,0,58
2020-08-27,0,50
2020-08-28,1,41
2020-08-29,2,48
2020-08-30,1,51
2020-08-31,0,47
2020-09-01,1,52
2020-09-02,1,46
2020-09-03,1,44
2020-09-04,4,52
2020-09-05,0,48
2020-09-06,0,43
2020-09-07,0,44
2020-09-08,2,51
2020-09-09,0,44
2020-09-10,0,41
2020-09-11,1,47
2020-09-12,0,46
2020-09-13,0,44
2020-09-14,1,48
2020-09-15,1,51
2020-09-16,1,48
2020-09-17,0,42
2020-09-18,0,47
2020-09-19,0,52
2020-09-20,0,47
2020-09-21,1,44
2020-09-22,0,41
2020-09-23,2,48
2020-09-24,0,49
2020-09-25,0,38
2020-09-26,1,54
2020-09-27,0,50
2020-09-28,1,45
2020-09-29,0,42
2020-09-30,4,48
2020-10-01,5,54
2020-10-02,0,52
2020-10-03,0,38
2020-10-04,0,51
2020-10-05,0,44
2020-10-06,0,48
2020-10-07,2,46
2020-10-08,0,41
2020-10-09,0,49
2020-10-10,1,59
2020-10-11,1,54
2020-10-12,1,48
2020-10-13,0,54
2020-10-14,0,45
2020-10-15,0,54
2020-10-16,0,45
2020-10-17,0,55
2020-10-18,0,43
2020-10-19,1,49
2020-10-20,1,45
2020-10-21,1,59
2020-10-22,0,46
2020-10-23,1,54
2020-10-24,1,43
2020-10-25,2,50
2020-10-26,0,41
2020-10-27,0,41
2020-10-28,0,54
2020-10-29,1,43
2020-10-30,3,43
2020-10-31,0,57
2020-11-01,0,57
2020-11-02,1,54
2020-11-03,1,49
2020-11-04,1,50
2020-11-05,0,46
2020-11-06,1,51
2020-11-07,2,50
2020-11-08,0,52
2020-11-09,0,56
2020-11-10,1,52
2020-11-11,1,56
2020-11-12,0,51
2020-11-13,1,47
2020-11-14,1,47
2020-11-15,1,54
2020-11-16,0,52
2020-11-17,1,53
2020-11-18,0,40
2020-11-19,1,51
2020-11-20,1,55
2020-11-21,0,53
2020-11-22,0,53
2020-11-23,0,57
2020-11-24,1,57
2020-11-25,1,54
2020-11-26,0,51
2020-11-27,1,58
2020-11-28,2,55
2020-11-29,1,47
2020-11-30,6,50
2020-12-01,6,58
2020-12-02,2,52
2020-12-03,1,59
2020-12-04,0,56
2020-12-05,1,70
2020-12-06,3,54
2020-12-07,2,62
2020-12-08,0,54
2020-12-09,1,58
2020-12-10,0,47
2020-12-11,1,52
2020-12-12,6,54
2020-12-13,8,63
2020-12-14,5,54
2020-12-15,0,60
2020-12-16,2,60
2020-12-17,3,50
2020-12-18,1,61
2020-12-19,1,52
2020-12-20,1,48
2020-12-21,2,47
2020-12-22,1,47
2020-12-23,0,54
2020-12-24,3,50
2020-12-25,1,47
2020-12-26,0,48
2020-12-27,3,46
2020-12-28,0,61
2020-12-29,2,63
2020-12-30,1,56
2020-12-31,0,58
2021-01-01,1,54
2021-01-02,5,58
2021-01-03,5,68
2021-01-04,0,68
2021-01-05,3,71
2021-01-06,0,66
2021-01-07,1,65
2021-01-08,0,65
2021-01-09,0,56
2021-01-10,1,65
2021-01-11,0,66
2021-01-12,1,60
2021-01-13,1,67
2021-01-14,0,68
2021-01-15,1,57
2021-01-16,1,68
2021-01-17,2,63
2021-01-18,1,62
2021-01-19,0,61
2021-01-20,1,65
2021-01-21,1,68
2021-01-22,2,66
2021-01-23,1,68
2021-01-24,0,64
2021-01-25,0,62
2021-01-26,5,61
2021-01-27,3,72
2021-01-28,3,57
2021-01-29,0,77
2021-01-30,2,52
2021-01-31,2,68
2021-02-01,0,71
2021-02-02,2,76
2021-02-03,0,59
2021-02-04,1,74
2021-02-05,3,67
2021-02-06,3,75
2021-02-07,1,70
2021-02-08,1,78
2021-02-09,1,56
2021-02-10,0,63
2021-02-11,0,57
2021-02-12,6,56
2021-02-13,3,59
2021-02-14,0,42
2021-02-15,6,84
2021-02-16,4,79
2021-02-17,4,76
2021-02-18,1,84
2021-02-19,2,73
2021-02-20,6,75
2021-02-21,1,74
2021-02-22,1,80
2021-02-23,2,84
2021-02-24,1,77
2021-02-25,0,84
2021-02-26,2,87
2021-02-27,0,72
2021-02-28,3,76
2021-03-01,1,91
2021-03-02,1,79
2021-03-03,1,86
2021-03-04,1,82
2021-03-05,2,87
2021-03-06,0,91
2021-03-07,0,87
2021-03-08,2,74
2021-03-09,2,72
2021-03-10,0,80
2021-03-11,2,67
2021-03-12,2,72
2021-03-13,0,68
2021-03-14,1,63
2021-03-15,1,79
2021-03-16,1,74
2021-03-17,1,73
2021-03-18,4,68
2021-03-19,2,67
2021-03-20,2,64
2021-03-21,0,62
2021-03-22,1,70
2021-03-23,1,49
2021-03-24,0,63
2021-03-25,0,79
2021-03-26,1,65
2021-03-27,3,57
2021-03-28,3,62
2021-03-29,0,70
2021-03-30,0,59
2021-03-31,2,72
2021-04-01,1,72
2021-04-02,2,61
2021-04-03,0,47
2021-04-04,0,63
2021-04-05,0,54
2021-04-06,2,50
2021-04-07,1,84
2021-04-08,0,75
2021-04-09,1,68
2021-04-10,0,69
2021-04-11,1,62
2021-04-12,3,49
2021-04-13,4,77
2021-04-14,2,76
2021-04-15,1,62
2021-04-16,0,102
2021-04-17,2,90
2021-04-18,1,89
2021-04-19,0,91
2021-04-20,0,90
2021-04-21,2,79
2021-04-22,1,92
2021-04-23,0,100
2021-04-24,0,84
2021-04-25,3,91
2021-04-26,0,92
2021-04-27,0,95
2021-04-28,0,91
2021-04-29,2,97
2021-04-30,4,106
2021-05-01,6,81
2021-05-02,3,88
2021-05-03,1,106
2021-05-04,2,83
2021-05-05,1,92
2021-05-06,0,98
2021-05-07,1,98
2021-05-08,1,85
2021-05-09,0,95
2021-05-10,0,94
2021-05-11,1,98
2021-05-12,0,95
2021-05-13,3,99
2021-05-14,0,100
2021-05-15,2,100
2021-05-16,0,97
2021-05-17,2,104
2021-05-18,1,104
2021-05-19,1,103
2021-05-20,1,101
2021-05-21,1,106
2021-05-22,4,105
2021-05-23,2,104
2021-05-24,1,110
2021-05-25,4,105
2021-05-26,4,100
2021-05-27,4,109
2021-05-28,6,125
2021-05-29,3,117
2021-05-30,5,106
2021-05-31,1,119
2021-06-01,4,110
2021-06-02,3,113
2021-06-03,0,115
2021-06-04,2,118
2021-06-05,2,63
2021-06-06,4,119
2021-06-07,5,110
2021-06-08,2,116
2021-06-09,6,123
2021-06-10,8,131
2021-06-11,0,141
2021-06-12,2,117
2021-06-13,5,125
2021-06-14,3,126
2021-06-15,1,137
2021-06-16,1,123
2021-06-17,1,138
2021-06-18,0,137
2021-06-19,1,132
2021-06-20,2,130
2021-06-21,0,141
2021-06-22,0,125
2021-06-23,0,131
2021-06-24,0,129
2021-06-25,1,133
2021-06-26,4,137
2021-06-27,0,123
2021-06-28,2,137
2021-06-29,0,127
2021-06-30,0,138
2021-07-01,1,147
2021-07-02,0,138
2021-07-03,1,133
2021-07-04,2,130
2021-07-05,1,139
2021-07-06,0,154
2021-07-07,2,124
2021-07-08,1,138
2021-07-09,3,139
2021-07-10,3,138
2021-07-11,3,120
2021-07-12,1,135
2021-07-13,2,119
2021-07-14,0,132
2021-07-15,1,121
2021-07-16,2,141
2021-07-17,1,121
2021-07-18,0,6
2021-07-19,0,21
2021-07-20,3,137
2021-07-21,2,133
2021-07-22,2,109
2021-07-23,2,136
2021-07-24,2,111
2021-07-25,5,134
2021-07-26,0,137
2021-07-27,2,129
2021-07-28,0,127
2021-07-29,2,132
2021-07-30,0,125
2021-07-31,0,133
2021-08-01,3,114
2021-08-02,1,129
2021-08-03,0,135
2021-08-04,1,127
2021-08-05,0,135
2021-08-06,0,140
2021-08-07,1,123
2021-08-08,2,124
2021-08-09,3,135
2021-08-10,4,143
2021-08-11,0,127
2021-08-12,3,124
2021-08-13,3,134
2021-08-14,4,145
2021-08-15,1,127
2021-08-16,1,134
2021-08-17,0,137
2021-08-18,0,127
2021-08-19,1,128
2021-08-20,2,132
2021-08-21,2,126
2021-08-22,1,127
2021-08-23,1,141
2021-08-24,1,141
2021-08-25,0,147
2021-08-26,1,132
2021-08-27,1,132
2021-08-28,0,134
2021-08-29,1,153
2021-08-30,2,142
2021-08-31,3,134
2021-09-01,2,134
2021-09-02,2,127
2021-09-03,0,136
2021-09-04,1,136
2021-09-05,1,133
2021-09-06,0,119
2021-09-07,0,124
2021-09-08,0,129
2021-09-09,0,145
2021-09-10,0,121
2021-09-11,0,134
2021-09-12,1,117
2021-09-13,0,131
2021-09-14,0,132
2021-09-15,1,128
2021-09-16,1,117
2021-09-17,1,123
2021-09-18,3,126
2021-09-19,2,133
2021-09-20,0,120
2021-09-21,0,117
2021-09-22,0,123
2021-09-23,5,137
2021-09-24,0,133
2021-09-25,1,130
2021-09-26,0,132
2021-09-27,0,129
2021-09-28,1,109
2021-09-29,0,137
2021-09-30,1,133
2021-10-01,0,131
2021-10-02,1,123
2021-10-03,1,130
2021-10-04,1,125
2021-10-05,0,120
2021-10-06,2,136
2021-10-07,1,120
2021-10-08,0,131
2021-10-09,2,132
2021-10-10,0,118
2021-10-11,1,129
2021-10-12,0,123
2021-10-13,0,122
2021-10-14,1,118
2021-10-15,0,124
2021-10-16,4,130
2021-10-17,0,123
2021-10-18,1,136
2021-10-19,1,130
2021-10-20,0,131
2021-10-21,0,114
2021-10-22,2,139
2021-10-23,1,116
2021-10-24,0,124
2021-10-25,0,125
2021-10-26,2,136
2021-10-27,1,123
2021-10-28,3,124
2021-10-29,0,145
2021-10-30,2,122
2021-10-31,2,130
2021-11-01,2,129
2021-11-02,2,130
2021-11-03,0,127
2021-11-04,0,127
2021-11-05,0,134
2021-11-06,0,127
2021-11-07,1,135
2021-11-08,1,134
2021-11-09,0,130
2021-11-10,1,132
2021-11-11,0,129
2021-11-12,1,119
2021-11-13,2,136
2021-11-14,3,128
2021-11-15,2,133
2021-11-16,1,126
2021-11-17,1,140
2021-11-18,2,120
2021-11-19,3,126
2021-11-20,1,112
2021-11-21,2,112
2021-11-22,2,123
2021-11-23,2,134
2021-11-24,4,113
2021-11-25,0,121
2021-11-26,1,125
2021-11-27,1,113
2021-11-28,2,120
2021-11-29,0,126
2021-11-30,2,133
2021-12-01,0,137
2021-12-02,0,121
2021-12-03,1,132
2021-12-04,2,107
2021-12-05,6,122
2021-12-06,0,128
2021-12-07,1,115
2021-12-08,2,131
2021-12-09,2,121
2021-12-10,2,129
2021-12-11,1,115
2021-12-12,5,126
2021-12-13,2,133
2021-12-14,2,127
2021-12-15,0,136
2021-12-16,0,136
2021-12-17,1,138
2021-12-18,0,125
2021-12-19,4,134
2021-12-20,2,131
2021-12-21,2,109
2021-12-22,0,131
2021-12-23,1,122
2021-12-24,3,128
2021-12-25,2,121
2021-12-26,1,126
2021-12-27,2,135
2021-12-28,2,139
2021-12-29,1,135
2021-12-30,1,122
2021-12-31,3,143
2022-01-01,2,132
2022-01-02,4,139
2022-01-03,3,135
2022-01-04,5,136
2022-01-05,5,123
2022-01-06,5,137
2022-01-07,3,133
2022-01-08,3,139
2022-01-09,1,9
2022-01-10,4,0
2022-01-11,4,146
2022-01-12,0,145
2022-01-13,1,138
2022-01-14,1,134
2022-01-15,6,139
2022-01-16,2,141
2022-01-17,1,145
2022-01-18,1,140
2022-01-19,2,142
2022-01-20,1,142
2022-01-21,2,146
2022-01-22,1,142
2022-01-23,1,130
2022-01-24,1,149
2022-01-25,4,140
2022-01-26,1,149
2022-01-27,2,128
2022-01-28,2,143
2022-01-29,1,141
2022-01-30,0,128
2022-01-31,0,127
2022-02-01,1,119
2022-02-02,0,123
2022-02-03,3,128
2022-02-04,0,144
2022-02-05,3,131
2022-02-06,1,141
2022-02-07,1,130
2022-02-08,4,148
2022-02-09,4,156
2022-02-10,1,139
2022-02-11,0,146
2022-02-12,0,139
2022-02-13,2,139
2022-02-14,4,151
2022-02-15,1,150
2022-02-16,0,138
2022-02-17,1,134
2022-02-18,1,146
2022-02-19,2,134
2022-02-20,4,142
2022-02-21,0,136
2022-02-22,0,135
2022-02-23,2,148
2022-02-24,1,133
2022-02-25,0,134
2022-02-26,1,140
2022-02-27,1,129
2022-02-28,0,126
2022-03-01,0,136
2022-03-02,1,134
2022-03-03,4,134
2022-03-04,1,136
2022-03-05,1,132
2022-03-06,2,136
2022-03-07,0,155
2022-03-08,1,134
2022-03-09,1,134
2022-03-10,1,133
2022-03-11,2,135
2022-03-12,1,139
2022-03-13,0,140
2022-03-14,0,140
2022-03-15,2,133
2022-03-16,1,129
2022-03-17,1,139
2022-03-18,1,142
2022-03-19,4,139
2022-03-20,4,139
2022-03-21,1,135
2022-03-22,3,143
2022-03-23,1,142
2022-03-24,0,139
2022-03-25,2,146
2022-03-26,2,123
2022-03-27,0,136
2022-03-28,0,129
2022-03-29,3,134
2022-03-30,0,139
2022-03-31,1,136
2022-04-01,4,129
2022-04-02,3,138
2022-04-03,0,128
2022-04-04,1,143
2022-04-05,1,128
2022-04-06,1,134
2022-04-07,1,137
2022-04-08,1,140
2022-04-09,1,144
2022-04-10,1,134
2022-04-11,2,138
2022-04-12,4,138
2022-04-13,1,140
2022-04-14,7,135
2022-04-15,0,143
2022-04-16,4,128
2022-04-17,5,124
2022-04-18,2,138
2022-04-19,6,134
2022-04-20,1,144
2022-04-21,1,135
2022-04-22,1,131
2022-04-23,2,123
2022-04-24,0,142
2022-04-25,1,131
2022-04-26,0,141
2022-04-27,0,123
2022-04-28,0,125
2022-04-29,2,125
2022-04-30,1,135
2022-05-01,6,130
2022-05-02,2,138
2022-05-03,2,142
2022-05-04,1,138
2022-05-05,1,136
2022-05-06,0,134
2022-05-07,2,141
2022-05-08,0,138
2022-05-09,1,132
2022-05-10,0,137
2022-05-11,3,144
2022-05-12,3,134
2022-05-13,0,147
2022-05-14,1,152
2022-05-15,0,130
2022-05-16,0,143
2022-05-17,1,132
2022-05-18,0,137
2022-05-19,0,137
2022-05-20,2,126
2022-05-21,0,129
2022-05-22,1,135
2022-05-23,0,127
2022-05-24,0,131
2022-05-25,1,124
2022-05-26,2,132
2022-05-27,1,128
2022-05-28,1,143
2022-05-29,1,130
2022-05-30,0,117
2022-05-31,0,130
2022-06-01,0,125
2022-06-02,0,131
2022-06-03,1,128
2022-06-04,1,118
2022-06-05,2,129
2022-06-06,2,132
2022-06-07,1,127
2022-06-08,0,139
2022-06-09,0,120
2022-06-10,1,130
2022-06-11,2,128
2022-06-12,2,134
2022-06-13,2,118
2022-06-14,1,134
2022-06-15,4,121
2022-06-16,4,123
2022-06-17,0,116
2022-06-18,1,136
2022-06-19,2,131
2022-06-20,2,117
2022-06-21,2,140
2022-06-22,0,125
2022-06-23,1,132
2022-06-24,2,139
2022-06-25,2,137
2022-06-26,2,124
2022-06-27,2,143
2022-06-28,2,142
2022-06-29,0,126
2022-06-30,4,122
2022-07-01,3,124
2022-07-02,1,124
2022-07-03,1,132
2022-07-04,0,126
2022-07-05,0,129
2022-07-06,0,127
2022-07-07,3,130
2022-07-08,3,135
2022-07-09,1,121
2022-07-10,0,131
2022-07-11,1,138
2022-07-12,0,120
2022-07-13,2,117
2022-07-14,0,141
2022-07-15,1,134
2022-07-16,1,119
2022-07-17,0,129
2022-07-18,0,118
2022-07-19,0,126
2022-07-20,0,129
2022-07-21,0,126
2022-07-22,1,133
2022-07-23,0,120
2022-07-24,0,85
2022-07-25,1,127
2022-07-26,2,122
2022-07-27,3,127
2022-07-28,0,136
2022-07-29,0,123
2022-07-30,1,116
2022-07-31,0,118
2022-08-01,0,134
2022-08-02,0,121
2022-08-03,5,114
2022-08-04,4,126
2022-08-05,0,128
2022-08-06,1,116
2022-08-07,1,113
2022-08-08,1,130
2022-08-09,2,127
2022-08-10,3,136
2022-08-11,2,114
2022-08-12,0,137
2022-08-13,0,131
2022-08-14,1,135
2022-08-15,2,137
2022-08-16,3,128
2022-08-17,5,133
2022-08-18,1,134
2022-08-19,2,119
2022-08-20,3,112
2022-08-21,0,119
2022-08-22,0,126
2022-08-23,2,134
2022-08-24,1,135
2022-08-25,0,132
2022-08-26,0,133
2022-08-27,0,119
2022-08-28,1,130
2022-08-29,0,135
2022-08-30,2,125
2022-08-31,0,126
2022-09-01,0,122
2022-09-02,0,121
2022-09-03,2,139
2022-09-04,1,132
2022-09-05,0,130
2022-09-06,1,139
2022-09-07,2,123
2022-09-08,0,115
2022-09-09,0,117
2022-09-10,0,117
2022-09-11,0,118
2022-09-12,0,132
2022-09-13,2,141
2022-09-14,0,142
2022-09-15,2,140
2022-09-16,2,143
2022-09-17,3,127
2022-09-18,0,132
2022-09-19,2,137
2022-09-20,0,129
2022-09-21,0,143
2022-09-22,0,136
2022-09-23,1,134
2022-09-24,3,122
2022-09-25,1,127
2022-09-26,1,119
2022-09-27,1,136
2022-09-28,0,136
2022-09-29,1,132
2022-09-30,0,114
2022-10-01,2,119
2022-10-02,3,123
2022-10-03,4,127
2022-10-04,3,135
2022-10-05,5,133
2022-10-06,5,127
2022-10-07,3,135
2022-10-08,5,129
2022-10-09,4,132
2022-10-10,6,119
2022-10-11,1,138
2022-10-12,2,143
2022-10-13,3,139
2022-10-14,3,148
2022-10-15,5,127
2022-10-16,3,145
2022-10-17,1,142
2022-10-18,0,145
2022-10-19,0,131
2022-10-20,0,133
2022-10-21,1,135
2022-10-22,2,134
2022-10-23,1,137
2022-10-24,1,146
2022-10-25,0,119
2022-10-26,2,135
2022-10-27,3,146
2022-10-28,1,150
2022-10-29,0,147
2022-10-30,3,136
2022-10-31,0,146
2022-11-01,0,142
2022-11-02,0,144
2022-11-03,1,141
2022-11-04,0,155
2022-11-05,2,136
2022-11-06,2,135
2022-11-07,0,142
2022-11-08,0,152
2022-11-09,1,136
2022-11-10,4,144
2022-11-11,2,144
2022-11-12,0,132
2022-11-13,0,137
2022-11-14,0,138
2022-11-15,0,139
2022-11-16,1,146
2022-11-17,2,128
2022-11-18,0,106
2022-11-19,0,124
2022-11-20,1,128
2022-11-21,0,134
2022-11-22,0,126
2022-11-23,0,130
2022-11-24,0,136
2022-11-25,2,136
2022-11-26,1,111
2022-11-27,5,130
2022-11-28,2,129
2022-11-29,2,138
2022-11-30,1,118
2022-12-01,2,122
2022-12-02,0,125
2022-12-03,1,117
2022-12-04,2,126
2022-12-05,1,113
2022-12-06,2,125
2022-12-07,1,121
2022-12-08,0,133
2022-12-09,0,130
2022-12-10,0,121
2022-12-11,0,109
2022-12-12,1,120
2022-12-13,0,120
2022-12-14,0,99
2022-12-15,1,125
2022-12-16,0,114
2022-12-17,1,99
2022-12-18,0,124
2022-12-19,0,127
2022-12-20,0,122
2022-12-21,1,106
2022-12-22,0,137
2022-12-23,3,118
2022-12-24,2,121
2022-12-25,4,133
2022-12-26,1,137
2022-12-27,1,122
2022-12-28,0,136
2022-12-29,0,121
2022-12-30,0,125
2022-12-31,0,118
2023-01-01,0,111
2023-01-02,0,121
2023-01-03,0,137
2023-01-04,1,132
2023-01-05,1,143
2023-01-06,0,130
2023-01-07,0,125
2023-01-08,0,115
2023-01-09,0,130
2023-01-10,0,120
2023-01-11,1,135
2023-01-12,0,131
2023-01-13,1,126
2023-01-14,0,131
2023-01-15,0,125
2023-01-16,0,125
2023-01-17,0,135
2023-01-18,0,120
2023-01-19,0,101
2023-01-20,0,118
2023-01-21,1,114
2023-01-22,0,111
2023-01-23,0,111
2023-01-24,1,112
2023-01-25,1,109
2023-01-26,0,111
2023-01-27,0,117
2023-01-28,0,116
2023-01-29,0,128
2023-01-30,0,127
2023-01-31,0,134
2023-02-01,0,134
2023-02-02,0,131
2023-02-03,0,127
2023-02-04,0,143
2023-02-05,1,125
2023-02-06,1,141
2023-02-07,0,134
2023-02-08,1,129
2023-02-09,2,141
2023-02-10,1,134
2023-02-11,0,137
2023-02-12,0,137
2023-02-13,0,143
2023-02-14,0,154
2023-02-15,0,125
2023-02-16,0,138
2023-02-17,0,134
2023-02-18,0,141
2023-02-19,1,127
2023-02-20,0,132
2023-02-21,0,124
2023-02-22,0,141
2023-02-23,0,116
2023-02-24,0,128
2023-02-25,0,135
2023-02-26,1,118
2023-02-27,0,132
2023-02-28,0,128
2023-03-01,0,144
2023-03-02,2,128
2023-03-03,2,129
2023-03-04,0,137
2023-03-05,0,122
2023-03-06,1,122
2023-03-07,1,119
2023-03-08,0,120
2023-03-09,1,148
2023-03-10,0,120
2023-03-11,1,124
2023-03-12,1,129
2023-03-13,0,135
2023-03-14,0,122
2023-03-15,0,127
2023-03-16,1,126
2023-03-17,2,119
2023-03-18,0,117
2023-03-19,1,123
2023-03-20,1,136
2023-03-21,3,140
2023-03-22,1,126
2023-03-23,1,133
2023-03-24,2,131
2023-03-25,0,133
2023-03-26,0,122
2023-03-27,0,125
2023-03-28,0,130
2023-03-29,0,129
2023-03-30,0,129
2023-03-31,0,129
2023-04-01,1,121
2023-04-02,0,129
2023-04-03,0,134
2023-04-04,1,138
2023-04-05,0,118
2023-04-06,0,146
2023-04-07,0,127
2023-04-08,1,140
2023-04-09,0,124
2023-04-10,0,125
2023-04-11,0,143
2023-04-12,0,136
2023-04-13,0,135
2023-04-14,0,130
2023-04-15,1,120
2023-04-16,1,127
2023-04-17,1,117
2023-04-18,1,128
2023-04-19,0,142
2023-04-20,0,118
2023-04-21,0,133
2023-04-22,0,110
2023-04-23,0,126
2023-04-24,1,112
2023-04-25,3,120
2023-04-26,1,124
2023-04-27,2,120
2023-04-28,3,122
2023-04-29,1,100
2023-04-30,0,109
2023-05-01,0,121
2023-05-02,0,109
2023-05-03,0,131
2023-05-04,1,119
2023-05-05,0,140
2023-05-06,1,138
2023-05-07,1,109
2023-05-08,1,130
2023-05-09,0,132
2023-05-10,0,125
2023-05-11,1,121
2023-05-12,3,123
2023-05-13,0,125
2023-05-14,2,116
2023-05-15,0,125
2023-05-16,1,123
2023-05-17,2,127
2023-05-18,0,131
2023-05-19,0,140
2023-05-20,0,116
2023-05-21,0,134
2023-05-22,2,141
2023-05-23,0,140
2023-05-24,1,126
2023-05-25,1,149
2023-05-26,0,131
2023-05-27,0,135
2023-05-28,2,126
2023-05-29,0,136
2023-05-30,1,135
2023-05-31,0,138
2023-06-01,0,139
2023-06-02,1,135
2023-06-03,0,115
2023-06-04,1,130
2023-06-05,1,132
2023-06-06,0,120
2023-06-07,0,145
2023-06-08,0,129
2023-06-09,1,129
2023-06-10,0,125
2023-06-11,1,133
2023-06-12,0,125
2023-06-13,2,129
2023-06-14,0,134
2023-06-15,0,136
2023-06-16,0,137
2023-06-17,1,122
2023-06-18,1,144
2023-06-19,0,133
2023-06-20,2,135
2023-06-21,0,122
2023-06-22,3,119
2023-06-23,0,131
2023-06-24,1,123
2023-06-25,1,127
2023-06-26,1,127
2023-06-27,0,132
2023-06-28,0,132
2023-06-29,1,132
2023-06-30,1,133
2023-07-01,1,139
2023-07-02,0,110
2023-07-03,0,132
2023-07-04,0,125
2023-07-05,0,123
2023-07-06,0,131
2023-07-07,0,129
2023-07-08,0,115
2023-07-09,0,121
2023-07-10,1,123
2023-07-11,0,131
2023-07-12,0,121
2023-07-13,0,126
2023-07-14,0,118
2023-07-15,1,107
2023-07-16,1,123
2023-07-17,0,119
2023-07-18,2,120
2023-07-19,0,121
2023-07-20,0,121
2023-07-21,1,115
2023-07-22,0,122
2023-07-23,0,113
2023-07-24,0,127
2023-07-25,0,118
2023-07-26,1,130
2023-07-27,0,127
2023-07-28,0,121
2023-07-29,0,130
2023-07-30,0,124
2023-07-31,0,112
2023-08-01,0,112
2023-08-02,1,117
2023-08-03,0,118
2023-08-04,1,119
2023-08-05,0,102
2023-08-06,0,114
2023-08-07,0,124
2023-08-08,0,130
2023-08-09,2,113
2023-08-10,1,115
2023-08-11,0,111
2023-08-12,1,106
2023-08-13,0,119
2023-08-14,0,110
2023-08-15,0,124
2023-08-16,0,112
2023-08-17,0,115
2023-08-18,0,106
2023-08-19,0,103
2023-08-20,1,105
2023-08-21,0,114
2023-08-22,0,118
2023-08-23,0,118
2023-08-24,0,116
2023-08-25,0,108
2023-08-26,0,112
2023-08-27,1,109
2023-08-28,1,108
2023-08-29,1,116
2023-08-30,0,113
2023-08-31,0,123
2023-09-01,0,112
2023-09-02,2,116
2023-09-03,1,107
2023-09-04,0,121
2023-09-05,1,98
2023-09-06,0,111
2023-09-07,2,113
2023-09-08,1,109
2023-09-09,0,111
2023-09-10,1,110
2023-09-11,0,124
2023-09-12,0,111
2023-09-13,0,117
2023-09-14,0,102
2023-09-15,0,125
2023-09-16,1,123
2023-09-17,1,114
2023-09-18,0,114
2023-09-19,0,115
2023-09-20,1,102
2023-09-21,1,118
2023-09-22,0,106
2023-09-23,0,118
2023-09-24,0,108
2023-09-25,0,119
2023-09-26,0,119
2023-09-27,0,122
2023-09-28,0,117
2023-09-29,1,94
2023-09-30,0,115
2023-10-01,1,94
2023-10-02,0,105
2023-10-03,0,96
2023-10-04,0,99
2023-10-05,2,101
2023-10-06,0,101
2023-10-07,0,122
2023-10-08,0,118
2023-10-09,0,110
2023-10-10,0,128
2023-10-11,4,116
2023-10-12,1,123
2023-10-13,0,120
2023-10-14,0,111
2023-10-15,0,115
2023-10-16,0,108
2023-10-17,1,121
2023-10-18,1,114
2023-10-19,1,118
2023-10-20,0,117
2023-10-21,0,106
2023-10-22,0,118
2023-10-23,0,118
2023-10-24,0,109
2023-10-25,2,108
2023-10-26,1,112
2023-10-27,1,114
2023-10-28,0,114
2023-10-29,1,114
2023-10-30,1,112
2023-10-31,0,119
2023-11-01,0,118
2023-11-02,0,114
2023-11-03,0,109
2023-11-04,0,99
2023-11-05,0,108
2023-11-06,0,117
2023-11-07,0,111
2023-11-08,0,105
2023-11-09,0,101
2023-11-10,0,107
2023-11-11,0,106
2023-11-12,2,98
2023-11-13,0,121
2023-11-14,0,120
2023-11-15,0,110
2023-11-16,1,121
2023-11-17,0,89
2023-11-18,0,101
2023-11-19,1,105
2023-11-20,0,108
2023-11-21,1,126
2023-11-22,0,111
2023-11-23,0,105
2023-11-24,0,115
2023-11-25,1,106
2023-11-26,0,113
2023-11-27,0,131
2023-11-28,0,132
2023-11-29,0,115
2023-11-30,1,108
2023-12-01,0,117
2023-12-02,0,110
2023-12-03,0,111
2023-12-04,1,119
2023-12-05,1,43
2023-12-06,0,44
2023-12-07,0,36
2023-12-08,0,52
2023-12-09,1,40
2023-12-10,0,43
2023-12-11,0,51
2023-12-12,0,42
2023-12-13,0,38
2023-12-14,0,47
2023-12-15,0,42
2023-12-16,0,44
2023-12-17,0,50
2023-12-18,3,42
2023-12-19,0,42
2023-12-20,1,37
2023-12-21,0,28
2023-12-22,1,47
2023-12-23,0,34
2023-12-24,0,34
2023-12-25,0,35
2023-12-26,0,44
2023-12-27,0,38
2023-12-28,0,43
2023-12-29,0,42
2023-12-30,0,43
2023-12-31,0,38
2024-01-01,1,44
2024-01-02,0,44
2024-01-03,0,36
2024-01-04,1,49
2024-01-05,0,46
2024-01-06,0,43
2024-01-07,0,39